DW1139 Weather Reports


Display with metric or nautical units.
time (UTC)temp
F
wind
direction
speed
MPH
gust
MPH
rain 1hr
in
rain 24hr
in
rain mn
in
humidity
%
barometer
mb
20221002232045 72 355 4.0 8.0 0.00 0.00 0.00 56 1014.4
20221002231554 73 347 4.0 9.0 0.00 0.00 0.00 55 1014.4
20221002231045 73 340 4.0 13.0 0.00 0.00 0.00 55 1014.3
20221002230546 73 346 6.0 13.0 0.00 0.00 0.00 54 1014.2
20221002230102 74 333 4.0 11.0 0.00 0.00 0.00 53 1014.2
20221002225546 74 329 6.0 11.0 0.00 0.00 0.00 53 1014.1
20221002225046 74 319 6.0 11.0 0.00 0.00 0.00 52 1014.1
20221002224555 75 329 6.0 10.0 0.00 0.00 0.00 52 1014.1
20221002224046 75 339 3.0 10.0 0.00 0.00 0.00 52 1014.1
20221002223546 75 302 6.0 10.0 0.00 0.00 0.00 51 1013.9
20221002223048 75 321 6.0 10.0 0.00 0.00 0.00 51 1013.8
20221002222549 76 338 6.0 12.0 0.00 0.00 0.00 51 1013.8
20221002222043 76 323 7.0 12.0 0.00 0.00 0.00 50 1013.7
20221002221558 76 355 6.0 11.0 0.00 0.00 0.00 49 1013.7
20221002221046 76 5 6.0 11.0 0.00 0.00 0.00 49 1013.5
20221002220545 77 342 7.0 11.0 0.00 0.00 0.00 48 1013.5
20221002220054 77 344 6.0 13.0 0.00 0.00 0.00 48 1013.5
20221002215546 77 342 9.0 13.0 0.00 0.00 0.00 48 1013.4
20221002215046 77 335 8.0 13.0 0.00 0.00 0.00 48 1013.5
20221002214547 77 317 3.0 12.0 0.00 0.00 0.00 47 1013.4
20221002214045 77 344 6.0 12.0 0.00 0.00 0.00 46 1013.4
20221002213548 77 332 8.0 12.0 0.00 0.00 0.00 46 1013.3
20221002213104 78 309 3.0 12.0 0.00 0.00 0.00 46 1013.3
20221002212547 77 275 3.0 12.0 0.00 0.00 0.00 46 1013.3
20221002212046 78 346 8.0 12.0 0.00 0.00 0.00 45 1013.3
20221002211553 78 325 4.0 10.0 0.00 0.00 0.00 45 1013.2
20221002211045 78 309 2.0 12.0 0.00 0.00 0.00 46 1013.2
20221002210547 78 309 7.0 16.0 0.00 0.00 0.00 44 1013.2
20221002210050 78 5 4.0 16.0 0.00 0.00 0.00 44 1013.2
20221002205545 78 343 8.0 16.0 0.00 0.00 0.00 44 1013.1
20221002205041 78 135 2.0 18.0 0.00 0.00 0.00 44 1012.9
20221002204555 78 306 6.0 18.0 0.00 0.00 0.00 44 1012.9
20221002204045 78 328 10.0 18.0 0.00 0.00 0.00 44 1013.0
20221002203545 79 315 9.0 13.0 0.00 0.00 0.00 43 1012.9
20221002203055 78 15 5.0 13.0 0.00 0.00 0.00 45 1012.9
20221002202549 79 311 4.0 13.0 0.00 0.00 0.00 44 1013.0
20221002202045 78 317 5.0 11.0 0.00 0.00 0.00 44 1013.0
20221002201550 78 67 6.0 17.0 0.00 0.00 0.00 43 1012.9
20221002201042 78 5 6.0 17.0 0.00 0.00 0.00 44 1013.0
20221002200542 78 318 4.0 10.0 0.00 0.00 0.00 44 1013.0
20221002200054 78 273 2.0 12.0 0.00 0.00 0.00 44 1013.0
20221002195545 78 231 3.0 16.0 0.00 0.00 0.00 44 1013.0
20221002195045 78 298 3.0 16.0 0.00 0.00 0.00 43 1013.0
20221002194554 78 281 8.0 16.0 0.00 0.00 0.00 44 1013.0
20221002194043 77 343 5.0 12.0 0.00 0.00 0.00 44 1013.0
20221002193544 79 332 6.0 12.0 0.00 0.00 0.00 42 1013.0
20221002193054 78 336 5.0 9.0 0.00 0.00 0.00 46 1012.9
20221002192546 78 171 2.0 10.0 0.00 0.00 0.00 44 1012.8
20221002192042 77 246 4.0 11.0 0.00 0.00 0.00 45 1013.0
20221002191551 77 190 4.0 11.0 0.00 0.00 0.00 45 1013.0
20221002191044 77 355 3.0 14.0 0.00 0.00 0.00 44 1013.0
20221002190544 77 324 5.0 15.0 0.00 0.00 0.00 45 1013.0
20221002190055 78 331 2.0 15.0 0.00 0.00 0.00 44 1013.0
20221002185543 78 328 4.0 15.0 0.00 0.00 0.00 44 1012.9
20221002185043 77 296 5.0 13.0 0.00 0.00 0.00 45 1012.9
20221002184559 76 188 4.0 14.0 0.00 0.00 0.00 45 1012.8
20221002184042 77 328 7.0 14.0 0.00 0.00 0.00 45 1012.9
20221002183542 77 331 5.0 13.0 0.00 0.00 0.00 44 1013.0
20221002183101 77 254 7.0 18.0 0.00 0.00 0.00 45 1013.1
20221002182603 77 315 10.0 18.0 0.00 0.00 0.00 45 1013.1
20221002182041 76 223 3.0 13.0 0.00 0.00 0.00 45 1013.2
20221002181554 76 352 6.0 10.0 0.00 0.00 0.00 46 1013.3
20221002181042 75 207 5.0 10.0 0.00 0.00 0.00 47 1013.4
20221002180545 77 342 2.0 13.0 0.00 0.00 0.00 45 1013.4
20221002180051 76 288 6.0 14.0 0.00 0.00 0.00 45 1013.4
20221002175545 75 310 4.0 14.0 0.00 0.00 0.00 47 1013.5
20221002175046 75 311 8.0 14.0 0.00 0.00 0.00 46 1013.6
20221002174600 76 339 8.0 15.0 0.00 0.00 0.00 46 1013.7
20221002174044 75 341 7.0 15.0 0.00 0.00 0.00 47 1013.6
20221002173547 75 299 7.0 14.0 0.00 0.00 0.00 48 1013.8
20221002173057 75 332 9.0 16.0 0.00 0.00 0.00 47 1013.7
20221002172541 74 331 8.0 16.0 0.00 0.00 0.00 47 1013.8
20221002172042 75 321 10.0 16.0 0.00 0.00 0.00 46 1013.9
20221002171554 74 325 8.0 16.0 0.00 0.00 0.00 48 1013.8
20221002171041 74 312 7.0 13.0 0.00 0.00 0.00 47 1013.9
20221002170543 75 313 3.0 13.0 0.00 0.00 0.00 47 1013.8
20221002170047 75 340 5.0 18.0 0.00 0.00 0.00 48 1013.8
20221002165544 74 321 8.0 18.0 0.00 0.00 0.00 48 1013.8
20221002165046 74 336 7.0 13.0 0.00 0.00 0.00 49 1013.8
20221002164557 74 310 4.0 11.0 0.00 0.00 0.00 49 1013.9
20221002164044 74 285 3.0 12.0 0.00 0.00 0.00 50 1013.9
20221002163545 73 300 5.0 12.0 0.00 0.00 0.00 50 1013.9
20221002163047 74 208 4.0 12.0 0.00 0.00 0.00 51 1013.9
20221002162546 73 328 7.0 12.0 0.00 0.00 0.00 50 1014.0
20221002162047 72 342 3.0 15.0 0.00 0.00 0.00 52 1014.0
20221002161556 73 319 8.0 15.0 0.00 0.00 0.00 50 1014.1
20221002161044 73 288 4.0 10.0 0.00 0.00 0.00 53 1014.1
20221002160543 73 342 4.0 12.0 0.00 0.00 0.00 52 1014.1
20221002160050 72 351 3.0 12.0 0.00 0.00 0.00 51 1014.1
20221002155544 71 329 3.0 10.0 0.00 0.00 0.00 54 1014.2
20221002155042 72 303 2.0 11.0 0.00 0.00 0.00 51 1014.2
20221002154546 72 252 4.0 11.0 0.00 0.00 0.00 53 1014.2
20221002154042 71 360 2.0 11.0 0.00 0.00 0.00 53 1014.2
20221002153541 71 273 3.0 12.0 0.00 0.00 0.00 56 1014.3
20221002153049 70 328 6.0 13.0 0.00 0.00 0.00 54 1014.4
20221002152541 70 319 5.0 13.0 0.00 0.00 0.00 56 1014.4
20221002152041 70 325 4.0 10.0 0.00 0.00 0.00 56 1014.4
20221002151603 69 277 5.0 10.0 0.00 0.00 0.00 60 1014.4
20221002151045 69 341 2.0 7.0 0.00 0.00 0.00 60 1014.4
20221002150545 69 40 2.0 10.0 0.00 0.00 0.00 59 1014.4
20221002150054 69 5 3.0 10.0 0.00 0.00 0.00 59 1014.5
20221002145545 69 326 2.0 9.0 0.00 0.00 0.00 60 1014.5
20221002145047 68 325 3.0 9.0 0.00 0.00 0.00 62 1014.4
20221002144556 69 233 2.0 9.0 0.00 0.00 0.00 62 1014.4
20221002144044 68 302 3.0 7.0 0.00 0.00 0.00 64 1014.4
20221002143054 68 293 1.0 9.0 0.00 0.00 0.00 64 1014.6
20221002142547 66 330 3.0 9.0 0.00 0.00 0.00 66 1014.5
20221002142047 66 352 4.0 9.0 0.00 0.00 0.00 66 1014.4
20221002141557 67 283 2.0 9.0 0.00 0.00 0.00 65 1014.4
20221002141046 66 242 2.0 9.0 0.00 0.00 0.00 67 1014.4
20221002140543 66 284 2.0 9.0 0.00 0.00 0.00 67 1014.4
20221002140052 66 307 3.0 10.0 0.00 0.00 0.00 67 1014.3
20221002135543 65 315 3.0 10.0 0.00 0.00 0.00 68 1014.3
20221002135044 65 336 3.0 11.0 0.00 0.00 0.00 68 1014.3
20221002134557 64 322 4.0 12.0 0.00 0.00 0.00 70 1014.2
20221002134046 64 333 6.0 12.0 0.00 0.00 0.00 70 1014.2
20221002133544 64 294 5.0 12.0 0.00 0.00 0.00 70 1014.2
20221002133052 64 311 4.0 12.0 0.00 0.00 0.00 71 1014.2
20221002132546 64 349 3.0 10.0 0.00 0.00 0.00 72 1014.2
20221002132048 63 169 1.0 10.0 0.00 0.00 0.00 72 1014.3
20221002131548 63 301 3.0 10.0 0.00 0.00 0.00 72 1014.2
20221002131046 63 322 2.0 8.0 0.00 0.00 0.00 75 1014.2
20221002130546 62 290 3.0 8.0 0.00 0.00 0.00 75 1014.2
20221002130058 62 202 3.0 9.0 0.00 0.00 0.00 76 1014.2
20221002125548 61 294 3.0 9.0 0.00 0.00 0.00 77 1014.1
20221002125045 61 331 3.0 9.0 0.00 0.00 0.00 78 1014.1
20221002124046 60 311 2.0 8.0 0.00 0.00 0.00 80 1014.1
20221002123545 59 313 1.0 4.0 0.00 0.00 0.00 82 1014.0
20221002123055 59 303 2.0 6.0 0.00 0.00 0.00 82 1014.0
20221002122547 59 167 2.0 6.0 0.00 0.00 0.00 84 1014.0
20221002122047 58 205 1.0 6.0 0.00 0.00 0.00 84 1014.0
20221002121546 58 144 1.0 6.0 0.00 0.00 0.00 85 1013.9
20221002121046 57 0 2.0 4.0 0.00 0.00 0.00 86 1013.9
20221002120542 57 0 1.0 4.0 0.00 0.00 0.00 86 1013.9
20221002120056 56 226 1.0 5.0 0.00 0.00 0.00 88 1013.8
20221002115544 56 236 1.0 5.0 0.00 0.00 0.00 89 1013.8
20221002115042 55 221 0.0 3.0 0.00 0.00 0.00 90 1013.8
20221002114550 55 0 0.0 3.0 0.00 0.00 0.00 90 1013.7
20221002114042 54 0 0.0 2.0 0.00 0.00 0.00 91 1013.6
20221002113542 54 0 0.0 2.0 0.00 0.00 0.00 90 1013.7
20221002113053 54 0 0.0 2.0 0.00 0.00 0.00 91 1013.6
20221002112542 54 0 0.0 3.0 0.00 0.00 0.00 90 1013.6
20221002112043 54 0 0.0 3.0 0.00 0.00 0.00 89 1013.5
20221002111603 55 320 1.0 3.0 0.00 0.00 0.00 89 1013.5
20221002111044 55 322 0.0 2.0 0.00 0.00 0.00 88 1013.5
20221002110545 56 284 0.0 2.0 0.00 0.00 0.00 87 1013.5
20221002110108 56 0 0.0 2.0 0.00 0.00 0.00 87 1013.5
20221002105541 56 0 0.0 2.0 0.00 0.00 0.00 88 1013.4
20221002105043 56 252 0.0 3.0 0.00 0.00 0.00 87 1013.4
20221002104551 56 0 0.0 4.0 0.00 0.00 0.00 87 1013.3
20221002104044 56 216 1.0 4.0 0.00 0.00 0.00 88 1013.4
20221002103543 56 0 1.0 4.0 0.00 0.00 0.00 88 1013.4
20221002103050 56 275 1.0 4.0 0.00 0.00 0.00 88 1013.3
20221002102547 56 0 0.0 6.0 0.00 0.00 0.00 89 1013.2
20221002102043 56 145 1.0 6.0 0.00 0.00 0.00 90 1013.2
20221002101601 55 257 0.0 3.0 0.00 0.00 0.00 92 1013.1
20221002101043 54 261 1.0 3.0 0.00 0.00 0.00 93 1013.2
20221002100543 54 0 1.0 3.0 0.00 0.00 0.00 94 1013.1
20221002100111 53 0 0.0 2.0 0.00 0.00 0.00 95 1013.1
20221002095548 52 0 0.0 2.0 0.00 0.00 0.00 95 1013.0
20221002095044 52 0 0.0 2.0 0.00 0.00 0.00 96 1013.0
20221002064554 56 245 1.0 2.0 0.00 0.00 0.00 89 1012.9
20221002064044 56 0 0.0 1.0 0.00 0.00 0.00 89 1012.9
20221002063543 56 0 0.0 1.0 0.00 0.00 0.00 88 1012.9
20221002063056 56 0 0.0 2.0 0.00 0.00 0.00 86 1013.0
20221002062541 57 0 0.0 2.0 0.00 0.00 0.00 85 1012.9
20221002062044 57 245 1.0 2.0 0.00 0.00 0.00 86 1013.0
20221002061552 57 261 1.0 2.0 0.00 0.00 0.00 86 1012.9
20221002061043 57 329 0.0 1.0 0.00 0.00 0.00 86 1013.0
20221002060543 58 0 0.0 1.0 0.00 0.00 0.00 85 1013.0
20221002060059 58 0 0.0 1.0 0.00 0.00 0.00 84 1013.0
20221002055546 58 0 0.0 2.0 0.00 0.00 0.00 84 1013.0
20221002055044 59 0 0.0 2.0 0.00 0.00 0.00 84 1013.0
20221002054558 58 0 0.0 2.0 0.00 0.00 0.00 84 1013.0
20221002054047 58 0 0.0 1.0 0.00 0.00 0.00 84 1013.0
20221002053543 59 0 0.0 2.0 0.00 0.00 0.00 82 1013.1
20221002053050 60 0 0.0 2.0 0.00 0.00 0.00 81 1013.1
20221002052544 60 250 1.0 2.0 0.00 0.00 0.00 80 1013.1
20221002052042 61 0 0.0 1.0 0.00 0.00 0.00 78 1013.1
20221002051556 62 0 0.0 2.0 0.00 0.00 0.00 76 1013.1
20221002051044 63 0 0.0 2.0 0.00 0.00 0.00 75 1013.2
20221002050544 63 0 0.0 4.0 0.00 0.00 0.00 74 1013.1
20221002050103 64 352 0.0 5.0 0.00 0.00 0.00 73 1013.1
20221002045543 64 320 1.0 6.0 0.00 0.00 0.00 72 1013.0
20221002045045 64 321 2.0 8.0 0.00 0.00 0.00 72 1013.1
20221002044553 65 315 2.0 9.0 0.00 0.00 0.00 72 1013.0
20221002044041 65 327 2.0 9.0 0.00 0.00 0.00 71 1013.1
20221002043542 65 279 4.0 9.0 0.00 0.00 0.00 72 1013.0
20221002043052 65 290 3.0 9.0 0.00 0.00 0.00 72 1013.1
20221002042542 64 315 3.0 9.0 0.00 0.00 0.00 73 1013.2
20221002042047 63 306 0.0 4.0 0.00 0.00 0.00 76 1013.1
20221002041548 63 317 0.0 2.0 0.00 0.00 0.00 76 1013.0
20221002041041 64 273 0.0 2.0 0.00 0.00 0.00 75 1013.0
20221002040542 64 312 0.0 4.0 0.00 0.00 0.00 74 1013.0
20221002040102 65 313 1.0 4.0 0.00 0.00 0.00 73 1012.9
20221002035544 65 321 1.0 3.0 0.00 0.00 0.00 71 1012.9
20221002035042 66 321 1.0 4.0 0.00 0.00 0.00 70 1012.9
20221002034554 66 321 1.0 7.0 0.00 0.00 0.00 70 1012.8
20221002034041 66 288 2.0 7.0 0.00 0.00 0.00 70 1012.8
20221002033542 66 317 1.0 7.0 0.00 0.00 0.00 71 1012.7
20221002033054 66 321 1.0 4.0 0.00 0.00 0.00 72 1012.8
20221002032541 66 5 0.0 6.0 0.00 0.00 0.00 72 1012.8
20221002032043 65 319 1.0 6.0 0.00 0.00 0.00 72 1012.8
20221002031552 64 309 0.0 4.0 0.00 0.00 0.00 73 1012.7
20221002031042 64 0 0.0 4.0 0.00 0.00 0.00 74 1012.7
20221002030541 63 321 0.0 3.0 0.00 0.00 0.00 75 1012.5
20221002030049 63 0 0.0 3.0 0.00 0.00 0.00 74 1012.5
20221002025543 63 0 0.0 3.0 0.00 0.00 0.00 73 1012.4
20221002025044 64 0 0.0 2.0 0.00 0.00 0.00 71 1012.4
20221002024606 64 0 0.0 3.0 0.00 0.00 0.00 70 1012.4
20221002024042 64 0 0.0 3.0 0.00 0.00 0.00 71 1012.4
20221002023542 63 323 0.0 1.0 0.00 0.00 0.00 71 1012.2
20221002023051 65 0 0.0 2.0 0.00 0.00 0.00 68 1012.2
20221002022544 66 0 0.0 2.0 0.00 0.00 0.00 66 1012.1
20221002022043 66 0 0.0 3.0 0.00 0.00 0.00 66 1012.0
20221002021557 66 243 0.0 5.0 0.00 0.00 0.00 67 1012.0
20221002021042 64 0 1.0 5.0 0.00 0.00 0.00 67 1012.0
20221002020543 62 324 0.0 3.0 0.00 0.00 0.00 70 1012.0
20221002020123 61 0 0.0 3.0 0.00 0.00 0.00 72 1012.0
20221002015541 62 0 0.0 2.0 0.00 0.00 0.00 70 1011.9
20221002014255 62 0 0.0 1.0 0.00 0.00 0.00 69 1011.8
20221002013817 63 0 0.0 2.0 0.00 0.00 0.00 65 1011.6
20221002012042 64 0 0.0 2.0 0.00 0.00 0.00 65 1011.5
20221002011551 64 269 0.0 2.0 0.00 0.00 0.00 64 1011.5
20221002011042 65 0 0.0 1.0 0.00 0.00 0.00 65 1011.4
20221002010115 65 0 0.0 2.0 0.00 0.00 0.00 62 1011.3
20221002005542 66 0 0.0 3.0 0.00 0.00 0.00 60 1011.3
20221002005041 67 0 1.0 3.0 0.00 0.00 0.00 59 1011.1
20221002004554 68 223 1.0 2.0 0.00 0.00 0.00 56 1011.0
20221002004044 67 243 0.0 2.0 0.00 0.00 0.00 59 1010.9
20221002003547 66 0 0.0 2.0 0.00 0.00 0.00 60 1011.0
20221002003113 67 241 0.0 4.0 0.00 0.00 0.00 59 1010.8
20221002002544 68 241 0.0 4.0 0.00 0.00 0.00 56 1010.8
20221002002045 68 214 2.0 4.0 0.00 0.00 0.00 56 1010.8
20221002001551 67 215 1.0 9.0 0.00 0.00 0.00 58 1010.8
20221002001046 67 0 1.0 9.0 0.00 0.00 0.00 60 1010.8
20221002000543 67 321 3.0 5.0 0.00 0.00 0.00 59 1010.7
20221002000053 68 311 1.0 3.0 0.00 0.00 0.00 58 1010.5
20221001235546 69 0 0.0 2.0 0.00 0.00 0.00 55 1010.5
20221001235045 69 0 0.0 2.0 0.00 0.00 0.00 56 1010.4
20221001234611 70 0 0.0 1.0 0.00 0.00 0.00 54 1010.4
20221001234048 71 0 0.0 1.0 0.00 0.00 0.00 51 1010.2
20221001233543 72 0 0.0 2.0 0.00 0.00 0.00 49 1010.2
20221001233056 73 0 0.0 2.0 0.00 0.00 0.00 47 1010.1
20221001232545 73 0 0.0 3.0 0.00 0.00 0.00 46 1010.0